Regional Weather Roundup
Issued by NWS

Home | Current Version | Previous Version | Graphics & Text | Print | Product List | Glossary On
Versions: 1 2 3 4 5 6 7 8 9 10 11 12 13 14 15 16 17 18 19 20 21 22 23 24 25 26 27 28 29 30 31 32 33 34 35 36 37 38 39 40 41 42 43 44 45 46 47 48 49 50
990
ASUS45 KTFX 020810
RWRMT
MONTANA REGIONAL WEATHER ROUNDUP
NATIONAL WEATHER SERVICE GREAT FALLS MT
200 AM MDT MON MAY 02 2016

NOTE: "FAIR" INDICATES FEW OR NO CLOUDS BELOW 12000 FEET WITH NO
SIGNIFICANT WEATHER AND/OR OBSTRUCTIONS TO VISIBILITY.

MTZ001>007-043-020900-
WEST OF THE DIVIDE

CITY           SKY/WX    TMP DP  RH WIND       PRES   REMARKS
KALISPELL      CLEAR     37  36  96 CALM      30.14S
MISSOULA       CLEAR     43  35  73 N3        30.17R
BUTTE          CLOUDY    32  26  78 S5        30.23S
MULLAN PASS    CLEAR     46  30  53 SE7       30.19S
ANACONDA         N/A     37  30  75 S7        30.22S
DEER LODGE       N/A     36  30  80 CALM      30.22R
EUREKA           N/A     41  36  81 CALM      30.16R
HAMILTON         N/A     43  36  75 SE5       30.16R
LIBBY            N/A     41  36  81 CALM      30.16R
PLAINS           N/A     41  34  76 CALM      30.14R
$$

MTZ008-052>055-020900-
SOUTHWEST MONTANA

CITY           SKY/WX    TMP DP  RH WIND       PRES   REMARKS
BOZEMAN        CLEAR     39  29  67 SW3       30.22R
DILLON         CLEAR     36  28  73 SW7       30.20S WCI  30
ENNIS          CLEAR     34  28  80 NE3       30.26S
TWIN BRIDGES     N/A     39  23  53 CALM      30.17R
$$

MTZ009-010-012-014-046-048-049-054-020900-
EAST SLOPES AND CENTRAL MONTANA

CITY           SKY/WX    TMP DP  RH WIND       PRES   REMARKS
CUT BANK       CLEAR     38  31  76 NW5       30.18S
GREAT FALLS    CLEAR     36  31  82 SW6       30.18F WCI  31
HELENA         CLEAR     45  34  65 CALM      30.20R
CHOTEAU          N/A     37  36  93 W3        30.20S
CONRAD           N/A     33  32  96 E5        30.18F
$$

MTZ011-013-016-021-045-047-050-051-020900-
NORTH CENTRAL MONTANA

CITY           SKY/WX    TMP DP  RH WIND       PRES   REMARKS
HAVRE          PTCLDY    39  36  89 W6        30.16F
LEWISTOWN      CLOUDY    37  29  72 SE5       30.20S
N BAR RANCH      N/A     37  28  70 W6        30.22S
CHINOOK          N/A     43  37  81 W5        30.16F
$$

MTZ017>020-022>027-061-062-020900-
NORTHEAST MONTANA

CITY           SKY/WX    TMP DP  RH WIND       PRES   REMARKS
GLASGOW        MOCLDY    46  35  65 N6        30.15S
JORDAN           N/A     38  36  92 W6        30.17F
SIDNEY         CLOUDY    54  30  40 W6        30.12F
WOLF POINT     MOCLDY    45  36  70 SW8       30.14S
PLENTYWOOD       N/A     52  34  50 W6        30.09S
POPLAR           N/A     46  36  66 SW5       30.13F
SCOBEY           N/A     50  29  44 W12       30.09F
$$

MTZ028>42-056>058-020900-
SOUTHCENTRAL AND SOUTHEAST MONTANA

CITY           SKY/WX    TMP DP  RH WIND       PRES   REMARKS
BAKER          CLEAR     38  33  82 CALM      30.18F
BILLINGS       CLEAR     42  33  70 S7        30.20F
LIVINGSTON     CLOUDY    33  26  75 NW5       30.23R
MILES CITY     PTCLDY    45  35  68 SW3       30.18S
EKALAKA          N/A     41  26  55 SE3       30.15F
FORSYTH          N/A     46  32  57 CALM      30.18F
LAUREL           N/A     37  25  62 W1        30.17S
ROUNDUP          N/A     39  30  70 S3        30.09F
$$

REGIONAL REPORTS...DAKOTAS

CITY           SKY/WX    TMP DP  RH WIND       PRES   REMARKS
WILLISTON      CLOUDY    52  34  50 W16       30.08F
MINOT          CLOUDY    60  28  29 SW13      30.02F
DICKINSON      CLEAR     38  28  67 W6        30.12S
BEACH            N/A     41  32  70 W10       30.18S
CROSBY         CLOUDY    55  32  41 W16       30.05F
WATFORD CITY   CLOUDY    46  34  61 SW10      30.10F
BISMARCK       PTCLDY    43  34  70 CALM      30.11F
GRAND FORKS    CLOUDY    46  31  55 S5        30.08S
FARGO          CLOUDY    43  28  55 S3        30.09F
BUFFALO SD       N/A     43  30  60 W9        30.11F
RAPID CITY     CLEAR     35  28  75 W7        30.20F WCI  29
$$

REGIONAL REPORTS...WYOMING/IDAHO/WASHINGTON

CITY           SKY/WX    TMP DP  RH WIND       PRES   REMARKS
GILLETTE       CLEAR     34  30  85 S10       30.22F WCI  26
SHERIDAN       CLEAR     35  29  78 CALM      30.21S
BUFFALO WY       N/A    N/A N/A N/A MISG      30.22F
CODY           CLOUDY    43  28  56 S5        30.23S
YELLOWSTONE LA   N/A     25  18  74 CALM      30.29S
IDAHO FALLS    CLEAR     34  23  64 W3        30.19R
SALMON         CLEAR     37  28  70 CALM      30.17R
BOISE          MOCLDY    52  37  56 SE7       30.09R
SPOKANE        CLEAR     56  41  57 CALM      30.07R
$$

REGIONAL REPORTS...ALBERTA

CITY           SKY/WX    TMP DP  RH WIND       PRES   REMARKS
EDMONTON       PTCLDY    50  36  57 NW2       30.06S
CALGARY        CLEAR     45  27  49 NE2       30.14F
LETHBRIDGE     CLEAR     45  34  65 SW12G20   30.14S
MEDICINE HAT   CLEAR     45  39  81 SW8       30.13S
WATERTON GATE    N/A     41  32  70 SW8         N/A
MILK RIVER       N/A     37  32  81 W7          N/A
$$

REGIONAL REPORTS...SASKATCHEWAN

CITY           SKY/WX    TMP DP  RH WIND       PRES   REMARKS
SWIFT CURRENT  CLEAR     48  36  61 W12       30.09F
REGINA         CLEAR     41  30  65 W7        30.03S
SASKATOON      PTCLDY    48  34  57 CALM      30.03S
CYPRESS HILLS    N/A     45  30  57 W3          N/A
VAL MARIE        N/A     41  34  75 SW7         N/A
ROCKGLEN         N/A     43  34  70 W12         N/A
ASSINIBOIA       N/A     45  37  76 W2          N/A
$$




USA.gov is the U.S. government's official web portal to all federal, state and local government web resources and services.